San Sebastian, Spain

9:25 AM CEST on March 29, 2017 (GMT +0200)
San Sebastian

Weather History for LESO - February, 2013

Change the Weather History Date:

Friday, February 15, 2013

  Actual Average Record
Temperature  
Mean Temperature 50 °F -  
Max Temperature 55 °F 56 °F 73 °F (2007)
Min Temperature 44 °F 43 °F 33 °F (2003)
Degree Days  
Heating Degree Days 16    
Moisture  
Dew Point 44 °F    
Average Humidity 79    
Maximum Humidity 100    
Minimum Humidity 62    
Precipitation  
Precipitation 0.00 in - - ()
Sea Level Pressure  
Sea Level Pressure 30.22 in    
Wind  
Wind Speed 1 mph ()    
Max Wind Speed 6 mph    
Max Gust Speed -    
Visibility 6.2 miles    
Events      
Averages and records for this station are not official NWS values.
T = Trace of Precipitation, MM = Missing Value Source: Averaged Metar Reports

Daily Weather History Graph

Daily Weather History Graph

Search for Another Location

Airport or City:

Trip Planner

Search our weather history database for the weather conditions in past years. The results will help you decide how hot, cold, wet, or windy it might be!

Date:

Astronomy

Feb. 15, 2013 Rise Set
Actual Time 8:05 AM CET 6:38 PM CET
Civil Twilight 7:35 AM CET 7:07 PM CET
Nautical Twilight 7:02 AM CET 7:40 PM CET
Astronomical Twilight 6:29 AM CET 8:13 PM CET
Moon 10:21 AM CET (2/15) No Moon Set
Length of Visible Light 11h 31m
Length of Day
10h 32m
Waxing Crescent, 28% of the Moon is Illuminated
Feb 15
Waxing Crescent
Feb 17
First Quarter
Feb 25
Full
Mar 4
Last Quarter
Mar 11
New

Hourly Weather History & Observations

Time (CET) Temp. Dew Point Humidity Pressure Visibility Wind Dir Wind Speed Gust Speed Precip Events Conditions
5:30 AM 51.8 °F 48.2 °F 88% 30.21 in 6.2 mi Variable 1.2 mph - N/A   Mostly Cloudy
6:00 AM 50.0 °F 46.4 °F 87% 30.21 in 6.2 mi Calm Calm - N/A   Mostly Cloudy
6:30 AM 50.0 °F 46.4 °F 87% 30.21 in 6.2 mi Variable 1.2 mph - N/A   Mostly Cloudy
7:00 AM 50.0 °F 48.2 °F 94% 30.21 in 6.2 mi Variable 1.2 mph - N/A   Mostly Cloudy
7:30 AM 48.2 °F 48.2 °F 100% 30.21 in 6.2 mi Calm Calm - N/A   Mostly Cloudy
8:00 AM 48.2 °F 48.2 °F 100% 30.21 in 6.2 mi Variable 1.2 mph - N/A   Mostly Cloudy
8:30 AM 48.2 °F 48.2 °F 100% 30.21 in 6.2 mi Variable 1.2 mph - N/A   Mostly Cloudy
9:00 AM 48.2 °F 48.2 °F 100% 30.24 in 6.2 mi Variable 1.2 mph - N/A   Mostly Cloudy
9:30 AM 50.0 °F 48.2 °F 94% 30.24 in 6.2 mi Calm Calm - N/A   Mostly Cloudy
10:00 AM 50.0 °F 48.2 °F 94% 30.24 in 6.2 mi Calm Calm - N/A   Mostly Cloudy
10:30 AM 51.8 °F 48.2 °F 88% 30.24 in 6.2 mi Calm Calm - N/A   Mostly Cloudy
11:00 AM 53.6 °F 46.4 °F 77% 30.24 in 6.2 mi Calm Calm - N/A   Mostly Cloudy
11:30 AM 51.8 °F 48.2 °F 88% 30.24 in 6.2 mi NNE 5.8 mph - N/A   Mostly Cloudy
12:00 PM 51.8 °F 44.6 °F 76% 30.24 in 6.2 mi NNE 3.5 mph - N/A   Mostly Cloudy
12:30 PM 53.6 °F 42.8 °F 67% 30.24 in 6.2 mi Variable 2.3 mph - N/A   Mostly Cloudy
1:00 PM 53.6 °F 42.8 °F 67% 30.24 in 6.2 mi Variable 1.2 mph - N/A   Mostly Cloudy
1:30 PM 55.4 °F 42.8 °F 63% 30.24 in 6.2 mi Variable 2.3 mph - N/A   Mostly Cloudy
2:00 PM 53.6 °F 41.0 °F 62% 30.24 in 6.2 mi Variable 2.3 mph - N/A   Mostly Cloudy
2:30 PM 53.6 °F 41.0 °F 62% 30.21 in 6.2 mi Variable 1.2 mph - N/A   Mostly Cloudy
3:00 PM 53.6 °F 41.0 °F 62% 30.21 in 6.2 mi North 3.5 mph - N/A   Scattered Clouds
3:30 PM 53.6 °F 41.0 °F 62% 30.21 in 6.2 mi Variable 1.2 mph - N/A   Partly Cloudy
4:00 PM 53.6 °F 42.8 °F 67% 30.21 in 6.2 mi Variable 1.2 mph - N/A   Partly Cloudy
4:30 PM 53.6 °F 42.8 °F 67% 30.21 in 6.2 mi Variable 2.3 mph - N/A   Partly Cloudy
5:00 PM 53.6 °F 41.0 °F 62% 30.21 in 6.2 mi North 3.5 mph - N/A   Partly Cloudy
5:30 PM 53.6 °F 41.0 °F 62% 30.21 in - Variable 1.2 mph - N/A   Clear
6:00 PM 51.8 °F 41.0 °F 67% 30.21 in - Variable 1.2 mph - N/A   Clear
6:30 PM 51.8 °F 42.8 °F 71% 30.21 in - Calm Calm - N/A   Clear
7:00 PM 50.0 °F 42.8 °F 76% 30.21 in - Calm Calm - N/A   Clear
7:30 PM 48.2 °F 42.8 °F 82% 30.21 in - Variable 1.2 mph - N/A   Clear
8:00 PM 46.4 °F 42.8 °F 87% 30.21 in - Variable 1.2 mph - N/A   Clear
8:30 PM 46.4 °F 41.0 °F 81% 30.21 in - Variable 2.3 mph - N/A   Clear
9:00 PM 44.6 °F 41.0 °F 87% 30.21 in - Variable 1.2 mph - N/A   Clear
9:30 PM 44.6 °F 42.8 °F 93% 30.21 in - Variable 1.2 mph - N/A   Clear